User: anonymous   Login
Location: Deer Path Park
(40.5570°N, 74.8450°W)
Time: 20:59:48
(UTC-04:00)
Language:

Iridium 49 - Orbit

View from above orbital plane
View from above orbital plane
View from above satellite
View from above satellite

Ground track
Ground track

The orbit data is extracted from the following two-line orbital elements,

1 25108U 97082E   16209.48094728 -.00000036  00000-0 -19753-4 0  9992
2 25108  86.3936  31.1603 0002078  81.8799 334.6331 14.34216460973830
Epoch (UTC): 27 July 2016 11:32:33
Eccentricity: 0.0002078
inclination: 86.3936°
perigee height: 776 km
apogee height: 779 km
right ascension of ascending node: 31.1603°
argument of perigee: 81.8799°
revolutions per day: 14.34216460
mean anomaly at epoch: 334.6331°
orbit number at epoch: 97383

The dashed part of the orbit path shows where the satellite is in the earth's shadow,  

DLR